#timestamp,LO_Frequency,Hit,StdDev 
1562317215.3,286046998.3,N
1562317235.2,286047001.2,N
1562317255.0,286047000.9,N
1562317255.9,286047000.9,N
1562317275.8,286046998.9,N
1562317295.6,286047000.4,N
1562317315.4,286046998.2,N
1562317335.3,286046998.8,N
1562317355.1,286047000.1,N
1562317375.9,286046998.5,N
1562317395.7,286046998.5,N
1562317415.5,286047000.1,N
1562317435.4,286047000.3,N
1562317455.2,286047002.7,N
1562317475.0,286047001.1,N
1562317476.0,286047001.1,N
1562317495.8,286046998.8,N
1562317515.6,286046998.3,N
1562317535.5,286047000.5,N
1562317555.3,286047000.7,N
1562317575.1,286047001.2,N
1562317595.9,286047000.8,N
1562317615.7,286046998.4,N
1562317635.6,286046998.2,N
1562317655.4,286047001.2,N
1562317675.2,286046998.2,N
1562317695.1,286047001.2,N
1562317696.0,286047001.2,N
1562317715.8,286047001.0,N
1562317735.6,286047000.9,N
1562317755.5,286046998.3,N
1562317775.3,286046998.1,N
1562317795.2,286046999.7,N
1562317815.9,286047000.9,N
1562317835.7,286046998.5,N
1562317855.6,286046998.5,N
1562317875.4,286047000.8,N
1562317895.3,286047000.3,N
1562317915.1,286047002.2,N
1562317916.0,286047002.2,N
1562317935.8,286047000.8,N
1562317955.7,286047000.5,N
1562317975.5,286046999.9,N
1562317995.3,286047002.7,N
1562318015.2,286047001.2,N
1562318035.0,286046998.3,N
1562318035.9,286046998.3,N
1562318055.8,286046999.4,N
1562318075.6,286046998.6,N
1562318095.4,286046998.3,N
1562318115.3,286047001.0,N
1562318135.1,286046998.2,N
1562318155.9,286046998.4,N
1562318175.7,286046998.4,N
1562318195.5,286046998.1,N
1562318215.4,286047000.9,N
1562318235.2,286047001.6,N
1562318255.0,286047002.2,N
1562318256.0,286047002.2,N
1562318275.8,286047000.2,N
1562318295.6,286046998.1,N
1562318315.5,286046998.4,N
1562318335.3,286046998.3,N
1562318355.1,286046998.1,N
1562318375.9,286047000.6,N
1562318395.7,286046999.9,N
1562318415.6,286047002.2,N
1562318435.4,286047001.6,N
1562318455.2,286047000.1,N
1562318475.1,286047002.5,N
1562318476.0,286047002.5,N
1562318495.8,286047002.0,N
1562318515.7,286046999.8,N
1562318535.5,286047004.4,N
1562318555.3,286047001.3,N
1562318575.2,286047004.2,N
1562318595.0,286047004.0,N
1562318595.9,286047004.0,N
1562318615.7,286047003.7,N
1562318635.6,286047003.1,N
1562318655.4,286047004.1,N
1562318675.3,286047004.3,N
1562318695.1,286047003.7,N
1562318715.8,286047004.2,N
1562318735.7,286047003.8,N
1562318755.5,286047003.8,N
1562318775.4,286047003.6,N
1562318795.2,286047004.2,N
1562318815.0,286047004.4,N
1562318815.9,286047004.4,N
1562318835.8,286047003.2,N
1562318855.6,286047004.0,N
1562318875.5,286047004.2,N
1562318895.3,286047004.1,N
1562318915.1,286047004.2,N
1562318935.9,286047003.9,N
1562318955.7,286047002.5,N
1562318975.6,286047002.3,N
1562318995.4,286047001.7,N
1562319015.3,286047002.3,N
1562319035.1,286046999.7,N
1562319055.8,286047002.2,N
1562319075.7,286046999.7,N
1562319095.5,286046999.8,N
1562319115.4,286047000.7,N
1562319135.2,286047002.7,N
1562319155.0,286047002.3,N
1562319155.9,286047002.3,N
1562319175.1,286047000.1,N
1562319195.8,286047000.3,N
1562319215.7,286047000.7,N
1562319235.5,286047000.7,N
1562319255.4,286047001.2,N
1562319275.2,286046998.1,N
1562319295.0,286046998.6,N
1562319295.9,286046998.6,N
1562319315.8,286046998.5,N
1562319335.6,286046998.2,N
1562319355.5,286046998.1,N
1562319375.3,286047001.1,N
1562319395.2,286046998.3,N
1562319415.0,286046999.0,N
1562319415.9,286046999.0,N
1562319435.8,286046998.3,N
1562319455.6,286046998.6,N
1562319475.4,286046998.2,N
1562319495.3,286046998.1,N
1562319515.1,286046998.5,N
1562319535.9,286047001.1,N
1562319555.7,286047001.2,N
1562319575.5,286046998.7,N
1562319595.4,286047000.0,N
1562319615.2,286047000.3,N
1562319635.0,286047001.0,N
1562319635.9,286047001.0,N
1562319655.8,286047002.3,N
1562319675.6,286046999.8,N
1562319695.5,286047000.3,N
1562319715.3,286047000.0,N
1562319735.1,286046998.3,N
1562319755.9,286046999.3,N
1562319775.7,286046998.6,N
1562319795.6,286046998.6,N
1562319815.4,286046999.3,N
1562319835.2,286046999.0,N
1562319855.1,286046999.4,N
1562319856.0,286046999.4,N
1562319875.8,286046998.7,N
1562319895.7,286046998.5,N
1562319915.5,286047001.0,N
1562319935.3,286047000.8,N
1562319955.2,286046998.4,N
1562319975.0,286046998.7,N
1562319975.9,286046998.7,N
1562319995.7,286046998.9,N
1562320015.6,286046998.4,N
1562320035.4,286046999.0,N
1562320055.3,286046999.1,N
1562320075.1,286046996.8,Y
1562320095.8,286046997.4,P
1562320115.7,286046997.2,N
1562320135.5,286046998.8,N
1562320155.4,286046999.3,N
1562320175.2,286046999.2,N
1562320195.0,286046997.1,Y
1562320195.9,286046997.1,P
1562320215.8,286047000.3,N
1562320235.6,286046998.1,N
1562320255.4,286047001.1,N
1562320275.3,286047001.0,N
1562320295.1,286046999.8,N
1562320315.9,286047000.6,N
1562320335.7,286046998.5,N
1562320355.5,286047001.0,N
1562320375.4,286046999.9,N
1562320395.2,286047002.6,N
1562320415.1,286047002.2,N
1562320416.0,286047002.2,N
1562320435.8,286047002.4,N
1562320455.6,286047001.4,N
1562320475.5,286047002.0,N
1562320495.3,286047002.3,N
1562320515.1,286047001.3,N
1562320535.9,286047004.0,N
1562320555.7,286047003.5,N
1562320575.6,286047002.5,N
1562320595.4,286047001.5,N
1562320615.2,286047001.3,N
1562320635.1,286047001.7,N
1562320636.0,286047001.7,N
1562320655.8,286047002.8,N
1562320675.7,286046999.8,N
1562320695.5,286047000.4,N
1562320715.3,286047000.2,N
1562320735.2,286047002.6,N
1562320755.0,286047002.6,N
1562320755.9,286047002.6,N
1562320775.7,286047002.0,N
1562320795.6,286047002.5,N
